GFSFLT2_700_spd_129.txt.gz
Wind_Speed
33 32 32 36 37 37 40 42 44 47 49 50 51 51 51 51 50 51 52 51 49 49 49 49 48 45 43
32 37 37 40 45 44 46 48 50 51 52 53 53 54 54 54 54 53 52 52 52 51 52 49 52 46 46
38 40 43 45 47 48 49 50 51 52 51 51 52 53 54 53 54 54 53 51 51 53 51 53 52 51 52
41 41 44 45 47 49 48 50 52 51 51 52 52 52 52 52 53 54 54 52 50 51 53 51 52 51 55
40 41 42 43 46 47 51 53 53 53 54 54 52 52 49 49 51 51 52 52 50 50 52 53 52 41 52
37 40 41 45 47 49 52 53 56 52 53 54 50 49 44 44 42 44 44 47 50 49 50 46 56 40 45
38 41 44 45 48 49 50 53 54 52 52 54 46 43 40 38 35 36 38 39 42 41 42 43 40 51 53
39 40 42 43 46 49 50 51 50 48 44 49 39 36 33 29 26 27 28 32 29 27 29 35 47 45 33
36 38 40 42 44 47 47 48 48 44 33 40 33 32 27 22 23 20 19 21 22 20 25 29 32 33 34
35 37 39 40 41 43 44 45 44 43 32 35 27 27 25 15 12 15 19 21 24 27 24 22 30 25 28
35 36 37 37 37 36 37 39 38 36 33 33 25 21 22 19 14 17 20 20 22 23 23 16 25 22 22
37 37 37 34 33 33 33 33 32 33 27 24 23 19 21 21 19 16 18 19 20 20 20 18 19 23 23
39 38 36 33 31 31 29 29 27 27 22 19 18 19 21 24 23 17 18 16 17 17 20 19 15 16 17
39 37 35 32 30 29 26 25 23 20 20 18 17 17 19 21 19 15 15 14 14 15 16 15 14 14 18
37 35 33 29 26 26 25 23 21 17 18 19 17 18 19 17 14 13 14 14 12 11 12 13 12 17 20
34 32 29 25 23 22 23 21 19 16 16 18 19 19 18 16 12 10 11 11 10 5 9 13 20 17 17
32 30 27 24 23 21 20 20 18 16 15 16 16 16 17 16 11 9 10 10 6 5 14 22 20 21 18

GFSFLT2_700_spd_135.txt.gz
Wind_Speed
40 39 38 46 38 34 31 34 31 34 38 42 46 47 44 43 44 45 45 47 47 47 47 48 48 49 49
39 41 35 30 32 39 33 33 38 40 40 43 44 43 43 44 45 46 47 48 48 48 49 49 51 50 51
25 32 37 34 32 34 37 41 41 40 41 42 43 43 44 46 47 48 48 48 48 48 49 49 48 48 49
28 30 30 31 34 34 34 38 37 39 40 41 43 43 44 46 46 47 48 49 50 50 51 51 50 49 49
30 30 31 32 33 34 36 36 36 38 41 40 41 41 42 44 46 48 48 48 49 50 51 50 49 48 46
29 30 31 34 35 37 40 41 38 35 41 35 40 39 41 42 44 46 47 47 48 47 47 45 45 44 41
29 31 33 37 39 39 40 42 42 38 40 42 40 39 41 42 44 44 45 46 46 43 41 40 37 35 34
32 33 34 35 37 37 38 39 40 39 43 47 41 41 39 38 41 42 40 41 40 38 37 35 30 27 26
33 34 34 35 37 39 39 41 41 40 39 45 43 44 40 35 34 35 36 37 36 34 32 27 27 28 28
34 35 36 36 38 39 41 42 44 46 39 44 41 43 45 31 27 28 31 32 32 31 28 27 31 30 27
33 35 36 37 38 39 41 43 44 43 41 43 42 35 35 37 20 20 26 27 26 28 29 29 30 30 30
35 35 36 37 38 40 40 41 41 42 39 38 37 34 32 30 27 19 19 22 24 26 27 28 29 28 28
34 36 38 39 40 41 40 40 38 35 35 35 33 32 30 30 29 21 21 19 22 23 24 26 25 25 24
37 38 39 39 39 38 37 35 33 28 29 33 32 31 28 26 24 22 23 23 21 21 22 25 26 25 22
39 39 38 38 36 38 37 33 30 27 24 26 30 28 27 24 21 23 24 22 23 21 22 23 24 22 17
38 38 37 35 35 35 33 30 27 25 24 23 24 24 22 20 21 20 22 21 20 20 20 21 19 13 10
35 36 34 34 34 31 28 26 24 23 22 22 22 21 17 18 18 20 19 19 19 17 18 17 12 6 9

GFSFLT2_700_spd_138.txt.gz
Wind_Speed
41 41 41 33 35 32 28 38 34 32 39 36 29 38 40 44 44 44 43 43 42 42 42 43 43 44 44
40 33 29 30 27 30 34 32 37 28 30 34 40 42 42 42 42 42 43 44 44 44 43 43 43 43 43
25 29 34 25 25 27 32 35 32 36 37 40 39 38 41 43 43 44 44 44 43 42 42 43 43 42 42
27 34 30 29 30 31 31 32 32 34 35 37 38 39 41 42 43 44 43 42 43 43 43 43 43 43 43
26 27 29 29 29 31 31 30 32 34 36 37 38 39 40 41 43 44 43 44 44 44 45 45 45 45 46
26 27 28 29 31 32 33 33 30 34 36 31 36 35 37 40 42 43 43 43 43 44 44 44 45 46 46
25 26 29 31 32 33 34 34 33 32 38 32 36 35 37 39 41 41 42 43 44 44 44 44 42 41 39
26 29 30 32 33 34 35 36 36 36 41 41 38 39 38 40 41 41 42 43 43 43 43 42 38 36 34
27 29 31 33 35 35 37 38 39 35 39 45 43 42 38 36 35 37 39 41 42 41 41 38 33 32 30
30 32 33 34 36 38 38 39 41 41 38 41 41 43 46 34 29 31 33 35 36 37 37 34 30 29 29
29 31 33 34 35 37 39 41 41 42 42 44 43 39 39 42 28 26 30 30 32 32 30 29 28 29 29
30 31 33 35 38 40 42 43 43 43 41 41 42 39 37 33 31 22 24 25 26 25 25 25 26 25 25
30 33 36 38 40 40 41 41 39 39 40 39 38 37 34 32 32 26 24 17 22 22 22 24 24 24 25
33 35 36 37 38 39 38 36 35 34 34 35 34 33 31 29 29 25 24 21 20 22 22 22 22 24 25
33 34 35 35 34 35 34 34 35 33 27 28 30 30 29 28 24 23 21 20 22 22 21 19 21 22 22
34 35 34 32 31 31 33 33 32 29 27 26 25 25 23 21 24 22 21 20 20 22 21 18 19 18 16
35 32 30 31 30 30 32 32 28 26 25 25 25 24 21 18 17 21 18 19 18 19 18 17 14 11 10

GFSFLT2_700_spd_144.txt.gz
Wind_Speed
32 28 29 32 33 36 40 37 34 35 31 36 32 35 33 32 34 38 36 36 41 36 40 42 43 42 40
30 34 33 32 34 31 38 38 32 33 25 29 32 34 34 34 32 28 29 37 40 44 44 41 41 42 42
29 30 30 28 26 27 30 30 29 24 28 31 30 31 30 32 36 37 37 38 40 40 43 44 40 40 42
28 27 23 25 24 21 22 25 25 27 28 27 29 31 31 32 34 36 37 37 39 40 41 41 40 40 41
20 21 22 20 19 19 20 23 25 26 26 28 30 31 33 34 36 36 36 38 40 41 40 40 41 42 42
16 17 16 18 18 20 21 22 24 26 25 26 30 31 33 35 37 37 38 42 43 43 44 44 44 45 45
16 16 17 18 18 20 21 24 27 28 28 27 30 31 33 35 37 38 39 41 43 44 44 44 44 45 45
18 19 20 21 22 23 23 25 28 30 30 28 31 32 34 37 40 41 43 45 47 48 48 47 47 48 48
20 21 23 23 25 26 25 26 27 32 34 34 32 33 32 35 38 41 43 46 47 47 47 47 46 46 45
22 23 24 25 25 25 26 28 29 31 33 32 33 36 33 29 33 36 39 41 43 43 44 44 43 43 42
23 23 23 24 25 27 28 29 29 30 35 37 34 36 37 38 27 30 33 35 37 38 39 40 40 41 40
23 23 24 25 26 27 28 30 32 33 35 36 35 34 35 36 36 28 29 29 30 31 32 32 33 34 33
23 24 25 26 26 28 30 32 33 33 34 34 34 33 35 36 36 29 29 23 26 27 26 26 27 27 27
24 25 25 26 27 29 31 31 31 32 34 35 35 36 34 31 30 27 26 26 23 23 23 21 23 26 26
25 26 26 27 29 29 29 30 30 29 28 31 35 34 31 28 24 27 24 23 22 22 22 17 22 26 24
25 25 26 27 27 28 29 29 28 28 32 33 30 26 25 23 22 24 24 23 22 24 25 21 18 26 24
25 25 26 26 26 27 29 28 27 29 32 33 29 25 22 20 17 22 21 19 22 22 23 22 21 21 20